This demonstration page uses our WeatherBlox Daily Observations layout. Learn more.

Left ArrowRight Arrow

47.50024, -111.30081

Hourly Observations for April 30, 2020

Temp ( °F °C ) Dew Point ( °F °C ) Humidity (%) Winds ( mph kmh ) Pressure ( in mb ) Visibility ( mi km ) Precip ( " mm )
12:53 am 00:53 Cloudy 59 15 43 6.1 56 56 SSE 3 6 29.80 1009 10 16 0.00 0.00
1:53 am 01:53 Cloudy 57 13.9 42 5.6 58 58 S 8 13 29.79 1009 10 16 0.00 0.00
2:53 am 02:53 Cloudy with Light Rain 54 12.2 46 7.8 75 75 SW 17 28 29.84 1011 7 11 0.00 0.00
3:53 am 03:53 Mostly Cloudy with Light Rain 53 11.7 48 8.9 83 83 SW 13 20 29.83 1010 10 16 0.05 1.27
4:53 am 04:53 Clear 51 10.6 46 7.8 83 83 SW 7 11 29.80 1009 10 16 0.00 0.00
5:53 am 05:53 Clear 51 10.6 45 7.2 80 80 SSW 14 22 29.77 1008 10 16 0.00 0.00
6:53 am 06:53 Sunny 52 11.1 45 7.2 77 77 SSW 13 20 29.78 1008 10 16 0.00 0.00
7:53 am 07:53 Sunny 53 11.7 47 8.3 80 80 SW 12 19 29.78 1008 10 16 0.00 0.00
8:53 am 08:53 Sunny 57 13.9 47 8.3 69 69 SW 13 20 29.76 1008 10 16 0.00 0.00
9:53 am 09:53 Sunny 61 16.1 47 8.3 60 60 SW 18 30 29.75 1007 10 16 0.00 0.00
10:53 am 10:53 Mostly Cloudy 65 18.3 46 7.8 51 51 SW 22 35 29.73 1007 10 16 0.00 0.00
11:53 am 11:53 Sunny 68 20 45 7.2 44 44 SW 18 30 29.72 1007 10 16 0.00 0.00
12:53 pm 12:53 Sunny 69 20.6 45 7.2 42 42 SW 16 26 29.70 1006 10 16 0.00 0.00
1:53 pm 13:53 Mostly Sunny 70 21.1 43 6.1 38 38 WSW 18 30 29.70 1006 10 16 0.00 0.00
2:53 pm 14:53 Mostly Sunny 68 20 42 5.6 39 39 WSW 16 26 29.69 1005 10 16 0.00 0.00
3:53 pm 15:53 Mostly Sunny 71 21.7 42 5.6 35 35 WSW 16 26 29.67 1005 10 16 0.00 0.00
4:53 pm 16:53 Sunny 67 19.4 40 4.4 37 37 WSW 14 22 29.69 1006 10 16 0.00 0.00
5:53 pm 17:53 Partly Cloudy 64 17.8 41 5 43 43 SW 20 31 29.71 1006 10 16 0.00 0.00
6:53 pm 18:53 Cloudy 60 15.6 38 3.3 44 44 SSW 22 35 29.74 1007 10 16 0.00 0.00
7:53 pm 19:53 Mostly Cloudy 56 13.3 41 5 57 57 S 15 24 29.76 1008 10 16 0.00 0.00
8:53 pm 20:53 Cloudy 56 13.3 37 2.8 49 49 W 12 19 29.76 1008 10 16 0.00 0.00
9:53 pm 21:53 Cloudy with Light Rain 54 12.2 36 2.2 51 51 W 12 19 29.78 1009 10 16 0.00 0.00
10:53 pm 22:53 Cloudy with Light Rain 50 10 38 3.3 63 63 WSW 20 31 29.83 1010 10 16 0.02 0.51
11:53 pm 23:53 Cloudy with Light Rain 49 9.4 39 3.9 69 69 W 7 11 29.85 1011 7 11 0.04 1.02

Powered by AerisWeather